User: anonymous   Login
Location: Radomski Observatory
(40.2854°N, 79.5145°W)
Time: 03:33:23
(UTC-04:00)
Language:

Cosmos 1072 Rocket - Orbit

View from above orbital plane
View from above orbital plane
View from above satellite
View from above satellite

Ground track
Ground track

The orbit data is extracted from the following two-line orbital elements,

1 11239U 79003B   14303.07648692  .00000130  00000-0  11813-3 0  3869
2 11239 082.9382 081.9313 0040867 195.6452 206.3729 13.75745633795703
Epoch (UTC): 30 October 2014 01:50:08
Eccentricity: 0.0040867
inclination: 82.9382°
perigee height: 949 km
apogee height: 1009 km
right ascension of ascending node: 81.9313°
argument of perigee: 195.6452°
revolutions per day: 13.75745633
mean anomaly at epoch: 206.3729°
orbit number at epoch: 79570

The dashed part of the orbit path shows where the satellite is in the earth's shadow,  

DLR